Location: Doazon
(43.4500°N, 0.5500°W)
Time: 17:20:45
(UTC+00:00)

CZ-2D R/B - Visible Passes

Search period start: 14 March 2026 00:00
Search period end: 24 March 2026 00:00
Orbit: 527 x 593 km, 98.0° (Epoch: 14 March)

Date Brightness Start Highest point End Pass type
(mag) Time Alt. Az. Time Alt. Az. Time Alt. Az.
14 Mar 4.5 19:02:14 10° S 19:06:16 49° W 19:10:21 10° NNW visible
15 Mar 4.5 19:00:52 10° S 19:04:55 51° W 19:09:01 10° NNW visible
16 Mar 4.4 18:59:29 10° S 19:03:34 53° W 19:07:41 10° NNW visible
17 Mar 4.3 18:58:06 10° S 19:02:12 55° W 19:06:20 10° NNW visible
18 Mar 4.2 18:56:44 10° S 19:00:50 57° W 19:04:59 10° NNW visible
19 Mar 4.1 18:55:21 10° S 18:59:28 60° W 19:03:38 10° NNW visible
20 Mar 4.1 18:53:58 10° S 18:58:06 62° WSW 19:02:16 10° NNW visible
21 Mar 4.0 18:52:34 10° S 18:56:44 65° W 19:00:54 10° NNW visible
22 Mar 3.9 18:51:11 10° S 18:55:21 68° WSW 18:59:32 10° NNW visible
23 Mar 3.8 18:49:48 10° S 18:53:57 71° WSW 18:58:08 10° NNW visible
